Location: Newark
(21.1200°N, 73.4000°E)
Time: 13:26:43
(UTC+00:00)

SR - Pass Details

Date: 03 February 2020
Orbit: 576 x 880 km, 66.7° (Epoch: 28 February)

Event Time Altitude Azimuth Distance (km) Brightness Sun altitude
Rises 14:52:10 0° 224° (SW) 3,331 ? -26.9°
Reaches altitude 10° 14:54:47 10° 234° (SW) 2,439 ? -27.5°
Maximum altitude 14:59:51 33° 297° (WNW) 1,411 ? -28.6°
Enters shadow 15:03:56 15° 353° (N) 2,162 ? -29.6°
Drops below altitude 10° 15:05:07 10° 360° (N) 2,530 - -29.9°
Sets 15:07:53 0° 9° (N) 3,473 - -30.5°
